• In Hungary
  • List of Countries
  • For 7 days
  • Water Temperature
  • Satellite Maps
  • Weather Map
  • News
  • Weather Widgets
  • user-avatar
    Login

    Hourly Weather Kotlice

    Today, 25 September, Tuesday

    Time Temperature Precipitation Wind Pressure Humidity
    00:00 +5°C° 0 mm 6 mps 747 mmHg 76%
    01:00 +5°C° 0 mm 6 mps 747 mmHg 76%
    02:00 +5°C° 0 mm 4 mps 748 mmHg 84%
    03:00 +5°C° 0 mm 5 mps 748 mmHg 83%
    04:00 +3°C° 0 mm 5 mps 748 mmHg 83%
    05:00 +3°C° 0 mm 6 mps 749 mmHg 82%
    06:00 +3°C° 0 mm 6 mps 749 mmHg 81%
    07:00 +4°C° 0 mm 6 mps 750 mmHg 79%
    08:00 +4°C° 0 mm 7 mps 751 mmHg 77%
    09:00 +5°C° 0 mm 7 mps 751 mmHg 71%
    10:00 +8°C° 0 mm 7 mps 752 mmHg 66%
    11:00 +9°C° 0 mm 7 mps 752 mmHg 60%
    12:00 +10°C° 0.4 mm 7 mps 752 mmHg 59%
    13:00 +10°C° 0.4 mm 7 mps 753 mmHg 58%
    14:00 +10°C° 0.4 mm 7 mps 753 mmHg 56%
    15:00 +10°C° 0.2 mm 7 mps 753 mmHg 59%
    16:00 +10°C° 0.2 mm 6 mps 753 mmHg 61%
    17:00 +9°C° 0.2 mm 6 mps 754 mmHg 63%
    18:00 +8°C° 0 mm 5 mps 754 mmHg 66%
    19:00 +7°C° 0 mm 5 mps 755 mmHg 69%
    20:00 +6°C° 0 mm 4 mps 755 mmHg 73%
    21:00 +6°C° 0 mm 4 mps 756 mmHg 73%
    22:00 +5°C° 0 mm 4 mps 756 mmHg 74%
    23:00 +5°C° 0 mm 4 mps 757 mmHg 75%

    Tomorrow, 26 September, Wednesday

    Time Temperature Precipitation Wind Pressure Humidity
    00:00 +4°C° 0 mm 4 mps 757 mmHg 77%
    01:00 +4°C° 0 mm 3 mps 758 mmHg 79%
    02:00 +3°C° 0 mm 3 mps 758 mmHg 81%
    03:00 +3°C° 0 mm 3 mps 758 mmHg 83%
    04:00 +3°C° 0 mm 3 mps 758 mmHg 85%
    05:00 +3°C° 0 mm 2 mps 759 mmHg 87%
    06:00 +3°C° 0 mm 3 mps 759 mmHg 84%
    07:00 +4°C° 0 mm 3 mps 759 mmHg 80%
    08:00 +4°C° 0 mm 3 mps 760 mmHg 77%
    09:00 +7°C° 0 mm 3 mps 760 mmHg 68%
    10:00 +9°C° 0 mm 3 mps 760 mmHg 59%
    11:00 +11°C° 0 mm 3 mps 759 mmHg 50%
    12:00 +11°C° 0 mm 4 mps 759 mmHg 48%
    13:00 +12°C° 0 mm 4 mps 758 mmHg 46%
    14:00 +13°C° 0 mm 4 mps 758 mmHg 44%
    15:00 +12°C° 0 mm 4 mps 757 mmHg 48%
    16:00 +12°C° 0 mm 3 mps 757 mmHg 53%
    17:00 +12°C° 0 mm 3 mps 756 mmHg 57%
    18:00 +11°C° 0 mm 3 mps 756 mmHg 60%
    19:00 +10°C° 0 mm 3 mps 756 mmHg 62%
    20:00 +10°C° 0 mm 3 mps 756 mmHg 65%
    21:00 +10°C° 0.1 mm 4 mps 755 mmHg 65%
    22:00 +10°C° 0.1 mm 4 mps 755 mmHg 66%
    23:00 +8°C° 0.1 mm 5 mps 755 mmHg 67%

    Day after tomorrow, 27 September, Thursday

    Time Temperature Precipitation Wind Pressure Humidity
    00:00 +9°C° 0 mm 5 mps 754 mmHg 65%
    01:00 +9°C° 0 mm 5 mps 754 mmHg 62%
    02:00 +9°C° 0 mm 6 mps 753 mmHg 60%
    03:00 +10°C° 0 mm 6 mps 753 mmHg 57%
    04:00 +10°C° 0 mm 6 mps 752 mmHg 54%
    05:00 +10°C° 0 mm 7 mps 752 mmHg 51%
    06:00 +10°C° 0 mm 7 mps 752 mmHg 51%
    07:00 +11°C° 0 mm 7 mps 752 mmHg 51%
    08:00 +11°C° 0 mm 7 mps 752 mmHg 50%
    09:00 +12°C° 0 mm 7 mps 752 mmHg 51%
    10:00 +14°C° 0 mm 7 mps 752 mmHg 52%
    11:00 +16°C° 0 mm 8 mps 752 mmHg 53%
    12:00 +17°C° 0 mm 7 mps 752 mmHg 54%
    13:00 +18°C° 0 mm 7 mps 751 mmHg 55%
    14:00 +20°C° 0 mm 7 mps 751 mmHg 55%
    15:00 +20°C° 0 mm 6 mps 751 mmHg 59%
    16:00 +19°C° 0 mm 5 mps 751 mmHg 62%
    17:00 +19°C° 0 mm 5 mps 751 mmHg 65%
    18:00 +18°C° 0 mm 4 mps 751 mmHg 69%
    19:00 +15°C° 0 mm 4 mps 751 mmHg 74%
    20:00 +14°C° 0 mm 3 mps 751 mmHg 79%
    21:00 +13°C° 0 mm 3 mps 751 mmHg 80%
    22:00 +13°C° 0 mm 3 mps 751 mmHg 82%
    23:00 +12°C° 0 mm 3 mps 751 mmHg 83%

    28 September, Friday

    Time Temperature Precipitation Wind Pressure Humidity
    00:00 +12°C° 0 mm 3 mps 750 mmHg 83%
    01:00 +11°C° 0 mm 3 mps 750 mmHg 82%
    02:00 +11°C° 0 mm 3 mps 750 mmHg 82%
    03:00 +11°C° 0 mm 3 mps 749 mmHg 80%
    04:00 +10°C° 0 mm 3 mps 749 mmHg 78%
    05:00 +10°C° 0 mm 3 mps 748 mmHg 77%
    06:00 +11°C° 0 mm 4 mps 748 mmHg 73%
    07:00 +12°C° 0 mm 4 mps 747 mmHg 69%
    08:00 +12°C° 0 mm 5 mps 747 mmHg 65%
    09:00 +14°C° 0 mm 5 mps 747 mmHg 61%
    10:00 +16°C° 0 mm 5 mps 747 mmHg 56%
    11:00 +19°C° 0 mm 5 mps 747 mmHg 52%
    12:00 +20°C° 0 mm 5 mps 746 mmHg 50%
    13:00 +21°C° 0 mm 6 mps 746 mmHg 49%
    14:00 +22°C° 0 mm 6 mps 745 mmHg 47%
    15:00 +21°C° 0 mm 5 mps 745 mmHg 50%
    16:00 +21°C° 0 mm 4 mps 745 mmHg 52%
    17:00 +20°C° 0 mm 3 mps 744 mmHg 55%
    18:00 +18°C° 0 mm 3 mps 744 mmHg 59%
    19:00 +17°C° 0 mm 3 mps 745 mmHg 63%
    20:00 +14°C° 0 mm 3 mps 745 mmHg 67%
    21:00 +13°C° 0 mm 3 mps 745 mmHg 71%
    22:00 +13°C° 0 mm 2 mps 745 mmHg 76%
    23:00 +12°C° 0 mm 2 mps 745 mmHg 80%

    29 September, Saturday

    Time Temperature Precipitation Wind Pressure Humidity
    00:00 +12°C° 0 mm 2 mps 745 mmHg 84%
    01:00 +12°C° 0 mm 2 mps 745 mmHg 87%
    02:00 +10°C° 0 mm 2 mps 745 mmHg 91%
    03:00 +10°C° 0.1 mm 2 mps 745 mmHg 91%
    04:00 +10°C° 0.1 mm 2 mps 745 mmHg 91%
    05:00 +10°C° 0.1 mm 2 mps 746 mmHg 91%
    06:00 +10°C° 0.4 mm 2 mps 746 mmHg 90%
    07:00 +12°C° 0.4 mm 2 mps 746 mmHg 89%
    08:00 +12°C° 0.4 mm 2 mps 747 mmHg 88%
    09:00 +11°C° 0.5 mm 3 mps 747 mmHg 84%
    10:00 +12°C° 0.5 mm 3 mps 748 mmHg 80%
    11:00 +12°C° 0.5 mm 3 mps 748 mmHg 75%
    12:00 +12°C° 0.1 mm 3 mps 748 mmHg 71%
    13:00 +13°C° 0.1 mm 3 mps 748 mmHg 66%
    14:00 +14°C° 0.1 mm 4 mps 748 mmHg 61%
    15:00 +13°C° 0.1 mm 3 mps 749 mmHg 62%
    16:00 +13°C° 0.1 mm 3 mps 749 mmHg 62%
    17:00 +13°C° 0.1 mm 3 mps 749 mmHg 62%
    18:00 +11°C° 0 mm 3 mps 749 mmHg 65%
    19:00 +10°C° 0 mm 3 mps 750 mmHg 68%
    20:00 +8°C° 0 mm 3 mps 750 mmHg 71%
    21:00 +7°C° 0 mm 3 mps 751 mmHg 71%
    22:00 +7°C° 0 mm 3 mps 751 mmHg 71%
    23:00 +5°C° 0 mm 3 mps 751 mmHg 70%

    30 September, Sunday

    Time Temperature Precipitation Wind Pressure Humidity
    00:00 +6°C° 0 mm 2 mps 751 mmHg 71%
    01:00 +5°C° 0 mm 2 mps 751 mmHg 71%
    02:00 +5°C° 0 mm 2 mps 751 mmHg 72%
    03:00 +4°C° 0 mm 2 mps 751 mmHg 74%
    04:00 +4°C° 0 mm 2 mps 751 mmHg 75%
    05:00 +4°C° 0 mm 2 mps 751 mmHg 77%
    06:00 +4°C° 0 mm 2 mps 752 mmHg 75%
    07:00 +5°C° 0 mm 2 mps 752 mmHg 73%
    08:00 +6°C° 0 mm 2 mps 752 mmHg 72%
    09:00 +7°C° 0 mm 3 mps 752 mmHg 65%
    10:00 +9°C° 0 mm 3 mps 752 mmHg 58%
    11:00 +11°C° 0 mm 3 mps 752 mmHg 50%
    12:00 +12°C° 0 mm 3 mps 751 mmHg 48%
    13:00 +13°C° 0 mm 3 mps 751 mmHg 45%
    14:00 +14°C° 0 mm 3 mps 750 mmHg 42%
    15:00 +14°C° 0 mm 2 mps 750 mmHg 45%
    16:00 +14°C° 0 mm 2 mps 749 mmHg 49%
    17:00 +14°C° 0 mm 2 mps 749 mmHg 52%
    18:00 +12°C° 0 mm 2 mps 749 mmHg 55%
    19:00 +10°C° 0 mm 2 mps 749 mmHg 57%
    20:00 +8°C° 0 mm 2 mps 749 mmHg 59%
    21:00 +8°C° 0 mm 2 mps 748 mmHg 59%
    22:00 +9°C° 0 mm 2 mps 748 mmHg 59%
    23:00 +9°C° 0 mm 2 mps 748 mmHg 58%
    Show more